Weather Roundup
Issued by NWS Chicago, IL

Home | Current Version | Previous Version | Graphics & Text | Print | Product List | Glossary On
Versions: 1 2 3 4 5 6 7 8 9 10 11 12 13 14 15 16 17 18 19 20 21 22 23 24 25 26 27 28 29 30 31 32 33 34 35 36 37 38 39 40 41 42 43 44 45 46 47 48 49 50
000
NZUS59 KLOT 010010
HRRLOT

CHICAGO AREA WEATHER ROUNDUP
NATIONAL WEATHER SERVICE CHICAGO/ROMEOVILLE IL
700 PM CDT TUE SEP 30 2014

NOTE: "FAIR" INDICATES FEW OR NO CLOUDS BELOW 12,000 FEET WITH NO
SIGNIFICANT WEATHER AND/OR OBSTRUCTIONS TO VISIBILITY.

* THESE STATIONS ARE NOT UNDER NWS QUALITY CONTROL. THEY ALSO MAY NOT
  REPORT WEATHER SUCH AS PRECIPITATION OR FOG.

ILZ005-006-012>014-019>023-010100-
NORTHEAST ILLINOIS

CITY           SKY/WX    TMP DP  RH WIND       PRES   REMARKS
OHARE          DRIZZLE   52  50  93 NE6       30.01F
6HR MIN TEMP:  52; 6HR MAX TEMP:  58; 6HR PCP: TRACE;

MIDWAY         CLOUDY    56  51  84 NE9       30.00F
6HR MIN TEMP:  56; 6HR MAX TEMP:  61; 6HR PCP: TRACE;

AURORA         CLOUDY    55  45  68 NE9       30.01F
6HR MIN TEMP:  55; 6HR MAX TEMP:  62;

LANSING*       CLOUDY    55  48  75 NE7       30.00F
JOLIET*        CLOUDY    55  47  75 NE3       30.01S
WAUKEGAN       NOT AVBL
DUPAGE AIRPORT CLOUDY    54  46  74 NE7       30.01S
6HR MIN TEMP:  54; 6HR MAX TEMP:  59;

WHEELING       CLOUDY    54  49  83 N6        30.01F
6HR MIN TEMP:  54; 6HR MAX TEMP:  58;

KANKAKEE*      CLOUDY    55  47  74 NE8       30.01F
MORRIS*        MOCLDY    54  48  82 CALM      30.00S
LEWIS AIRPORT* CLOUDY    55  46  73 NE8       30.01S
NORTHERLY IS     N/A     54  51  90 NE8         N/A
$$

WIZ051-052-058>065-066-070>072-010100-
SOUTHEAST WISCONSIN

CITY           SKY/WX    TMP DP  RH WIND       PRES   REMARKS
MILWAUKEE      DRIZZLE   50  47  89 N10       30.03F FOG
6HR MIN TEMP:  50; 6HR MAX TEMP:  54; 6HR PCP: TRACE;

KENOSHA*       CLOUDY    52  49  89 NE6       30.02F
RACINE*        CLOUDY    52  48  86 NE9       30.04S
BURLINGTON     CLOUDY    49  44  80 NE3       30.02S
WAUKESHA       CLOUDY    48  43  81 E8        30.04S
WEST BEND      CLOUDY    46  41  81 NE7       30.04S
$$

INZ001>003-010>013-019-020-010100-
NORTHWEST INDIANA

CITY           SKY/WX    TMP DP  RH WIND       PRES   REMARKS
GARY*          CLOUDY    57  48  72 N9        30.01S
MICHIGAN CITY* NOT AVBL
RENSSELAER*    NOT AVBL
VALPARAISO     CLOUDY    53  46  77 CALM      30.01S
$$

LMZ740>746-010100-
SOUTHERN LAKE MICHIGAN

STATION/POSITION TIME  SKY/WX   TEMP WIND        PRES    VSBY
                                AIR  DIR/SP/G
                 (UTC)          (F)  (DEG/KT/KT) (MB)    (MI)
HARRISON CRIB    2300            54   30/ 14/ 17   N/A
BURNHAM HARBOR   0000            54   10/  8/ 15   N/A
CALUMET HARBOR   0000            56   20/  8/ 11 1014.9S
BURNS HARBOR     NOT AVBL
MICHIGAN CITY    2300            54   20/  8/ 11   N/A
$$

ABBREVIATIONS USED IN REMARKS
   TC - TEMPERATURE IN CELSIUS
  WCI - WIND CHILL INDEX
   HX - HEAT INDEX
  VSB - VISIBILITY
$$



USA.gov is the U.S. government's official web portal to all federal, state and local government web resources and services.